Weather History for Hayward, WI

Change the Weather History Date:

Thursday, October 9, 2014

  Actual Average Record
Temperature  
Mean Temperature 36 °F -  
Max Temperature 46 °F 57 °F 80 °F (2011)
Min Temperature 27 °F 30 °F 19 °F (2000)
Degree Days  
Heating Degree Days 28    
Moisture  
Dew Point 30 °F    
Average Humidity 79    
Maximum Humidity 92    
Minimum Humidity 61    
Precipitation  
Precipitation 0.00 in - - ()
Sea Level Pressure  
Sea Level Pressure 30.17 in    
Wind  
Wind Speed 4 mph (SW)    
Max Wind Speed 9 mph    
Max Gust Speed -    
Visibility 10 miles    
Events      
Averages and records for this station are not official NWS values.
T = Trace of Precipitation, MM = Missing Value Source: NWS Daily Summary

Daily Weather History Graph

Daily Weather History Graph

Search for Another Location

Airport:

Trip Planner

Search our weather history database for the weather conditions in past years. The results will help you decide how hot, cold, wet, or windy it might be!

Date:

Astronomy

Oct. 09, 2014 Rise Set
Actual Time 7:14 AM CDT 6:30 PM CDT
Civil Twilight 6:44 AM CDT 7:00 PM CDT
Nautical Twilight 6:10 AM CDT 7:35 PM CDT
Astronomical Twilight 5:35 AM CDT 8:09 PM CDT
Moon 7:21 PM CDT (10/9) 8:34 AM CDT (10/9)
Length of Visible Light 12h 15m
Length of Day
11h 15m
Full, 98% of the Moon is Illuminated
Oct 9
Full
Oct 15
Last Quarter
Oct 23
New
Oct 30
First Quarter
Nov 6
Full

Hourly Weather History & Observations

Time (CDT) Temp. Windchill Dew Point Humidity Pressure Visibility Wind Dir Wind Speed Gust Speed Precip Events Conditions
12:53 AM 30.9 °F 27.5 °F 26.1 °F 82% 30.09 in 10.0 mi SSW 3.5 mph - N/A   Clear
1:53 AM 28.9 °F 25.2 °F 26.1 °F 89% 30.10 in 10.0 mi South 3.5 mph - N/A   Clear
2:53 AM 28.9 °F 23.9 °F 25.0 °F 85% 30.11 in 10.0 mi South 4.6 mph - N/A   Clear
3:53 AM 28.9 °F - 25.0 °F 85% 30.11 in 10.0 mi Calm Calm - N/A   Clear
4:53 AM 30.9 °F 27.5 °F 27.0 °F 85% 30.11 in 10.0 mi SSW 3.5 mph - N/A   Clear
5:53 AM 27.0 °F 23.0 °F 25.0 °F 92% 30.12 in 10.0 mi SSW 3.5 mph - N/A   Clear
6:53 AM 27.0 °F 23.0 °F 24.1 °F 89% 30.13 in 10.0 mi SSW 3.5 mph - N/A   Clear
7:53 AM 28.0 °F 21.7 °F 26.1 °F 92% 30.14 in 10.0 mi South 5.8 mph - N/A   Clear
8:53 AM 33.1 °F 28.7 °F 30.0 °F 89% 30.18 in 10.0 mi SSW 4.6 mph - N/A   Clear
9:53 AM 39.9 °F 37.8 °F 32.0 °F 73% 30.18 in 10.0 mi Variable 3.5 mph - N/A   Partly Cloudy
10:09 AM 41.0 °F 37.1 °F 33.1 °F 73% 30.15 in 10.0 mi NW 5.8 mph - N/A   Mostly Cloudy
10:53 AM 43.0 °F 38.8 °F 32.0 °F 65% 30.19 in 10.0 mi WNW 6.9 mph - N/A   Mostly Cloudy
11:53 AM 42.1 °F 37.7 °F 33.1 °F 70% 30.20 in 10.0 mi West 6.9 mph - N/A   Overcast
12:53 PM 43.0 °F 40.3 °F 33.1 °F 68% 30.21 in 10.0 mi NW 4.6 mph - N/A   Overcast
1:53 PM 43.0 °F 39.5 °F 33.1 °F 68% 30.20 in 10.0 mi West 5.8 mph - N/A   Overcast
2:53 PM 43.0 °F 40.3 °F 33.1 °F 68% 30.21 in 10.0 mi Variable 4.6 mph - N/A   Overcast
3:53 PM 45.0 °F 40.1 °F 33.1 °F 63% 30.20 in 10.0 mi West 9.2 mph - N/A   Overcast
4:46 PM 46.0 °F 43.9 °F 33.1 °F 61% 30.15 in 10.0 mi Variable 4.6 mph - N/A   Mostly Cloudy
4:53 PM 46.0 °F 43.9 °F 33.1 °F 61% 30.19 in 10.0 mi West 4.6 mph - N/A   Mostly Cloudy
5:53 PM 46.0 °F 43.9 °F 34.0 °F 63% 30.20 in 10.0 mi Variable 4.6 mph - N/A   Overcast
6:53 PM 44.1 °F - 34.0 °F 68% 30.20 in 10.0 mi Calm Calm - N/A   Clear
7:53 PM 36.0 °F - 33.1 °F 89% 30.22 in 10.0 mi Calm Calm - N/A   Clear
8:53 PM 33.1 °F - 30.9 °F 92% 30.23 in 10.0 mi Calm Calm - N/A   Clear
9:53 PM 30.9 °F - 28.9 °F 92% 30.23 in 10.0 mi Calm Calm - N/A   Clear
10:53 PM 30.9 °F 27.5 °F 28.9 °F 92% 30.24 in 10.0 mi SSW 3.5 mph - N/A   Clear
11:53 PM 30.0 °F - 27.0 °F 88% 30.24 in 10.0 mi Calm Calm - N/A   Clear